Location: Unspecified
(0.0000°N, 0.0000°E)
Time: 22:39:57
(UTC+00:00)

Vanguard 3 - All Passes

Search period start: 28 May 2022 00:00
Search period end: 07 June 2022 00:00
Orbit: 508 x 3258 km, 33.3° (Epoch: 27 May)

Date Brightness Start Highest point End Pass type
(mag) Time Alt. Az. Time Alt. Az. Time Alt. Az.
28 May - 05:25:15 10° NNW 05:32:25 38° NE 05:44:24 10° ESE visible
28 May - 07:35:42 10° WNW 07:46:03 70° SSW 08:03:47 10° SE daylight
28 May - 09:51:07 10° W 10:03:49 32° SSW 10:20:15 10° SSE daylight
28 May - 12:13:56 10° SW 12:25:40 18° S 12:37:14 10° SSE daylight
28 May - 14:36:43 10° SSW 14:48:27 19° S 14:57:49 10° SE daylight
28 May - 16:53:38 10° SW 17:07:05 37° SSE 17:15:16 10° E daylight
28 May - 19:10:15 10° WSW 19:21:15 71° NW 19:27:16 10° NE visible
29 May - 04:13:19 10° N 04:17:36 17° NE 04:23:19 10° ENE visible
29 May - 06:21:22 10° NW 06:29:49 78° NE 06:45:15 10° ESE daylight
29 May - 08:34:09 10° W 08:45:27 43° SSW 09:02:35 10° SE daylight
29 May - 10:53:17 10° WSW 11:05:26 22° SSW 11:19:08 10° SSE daylight
29 May - 13:17:10 10° SSW 13:28:41 18° S 13:38:59 10° SE daylight
29 May - 15:35:49 10° SSW 15:49:37 28° SSE 15:59:09 10° ESE daylight
29 May - 17:52:14 10° SW 18:05:57 67° SSE 18:13:23 10° ENE daylight
29 May - 20:10:51 10° W 20:18:08 27° NW 20:22:56 10° NNE visible
30 May - 05:07:58 10° NNW 05:14:37 43° NE 05:26:05 10° ESE visible
30 May - 07:18:39 10° WNW 07:28:10 60° SSW 07:44:39 10° SE daylight
30 May - 09:34:25 10° WSW 09:46:01 28° SSW 10:01:12 10° SSE daylight
30 May - 11:56:50 10° SW 12:08:12 18° S 12:19:38 10° SSE daylight
30 May - 14:17:37 10° SSW 14:30:59 22° SSE 14:41:33 10° ESE daylight
30 May - 16:34:21 10° SW 16:49:32 45° SSE 16:58:35 10° E daylight
30 May - 18:51:46 10° WSW 19:03:37 60° NW 19:10:09 10° NE visible
31 May - 03:55:50 10° N 04:00:02 18° NE 04:05:49 10° E visible
31 May - 06:04:14 10° NW 06:12:00 89° NE 06:26:24 10° SE daylight
31 May - 08:17:22 10° W 08:27:40 36° SSW 08:43:20 10° SE daylight
31 May - 10:36:43 10° SW 10:47:51 20° S 11:00:34 10° SSE daylight
31 May - 12:58:54 10° SSW 13:11:14 19° S 13:22:22 10° SE daylight
31 May - 15:16:29 10° SW 15:32:01 33° SSE 15:42:37 10° E daylight
31 May - 17:33:16 10° SW 17:48:16 80° SE 17:56:24 10° ENE daylight
31 May - 19:53:03 10° W 20:00:33 24° NW 20:05:34 10° N visible
01 Jun - 04:50:44 10° NNW 04:56:53 49° NE 05:07:44 10° ESE visible
01 Jun - 07:01:45 10° WNW 07:10:26 50° SSW 07:25:27 10° SE daylight
01 Jun - 09:17:56 10° WSW 09:28:22 24° SSW 09:42:03 10° SSE daylight
01 Jun - 11:39:38 10° SW 11:50:44 18° S 12:02:09 10° SE daylight
01 Jun - 13:58:36 10° SSW 14:13:21 25° SSE 14:25:05 10° ESE daylight
01 Jun - 16:15:07 10° SW 16:31:48 54° SSE 16:41:43 10° ENE daylight
01 Jun - 18:33:15 10° WSW 18:45:53 52° NW 18:52:59 10° NE visible
02 Jun - 03:38:22 10° N 03:42:29 20° NE 03:48:17 10° E visible
02 Jun - 05:47:13 10° WNW 05:54:18 78° SW 06:07:31 10° SE daylight
02 Jun - 08:00:46 10° WSW 08:10:03 30° SSW 08:23:59 10° SSE daylight
02 Jun - 10:20:15 10° SW 10:30:22 18° S 10:42:02 10° SSE daylight
02 Jun - 12:40:34 10° SSW 12:53:40 21° SSE 13:05:43 10° SE daylight
02 Jun - 14:57:14 10° SW 15:14:12 39° SSE 15:25:51 10° E daylight
02 Jun - 17:14:18 10° SW 17:30:25 89° NW 17:39:18 10° NE daylight
02 Jun - 19:35:16 10° W 19:42:55 22° NW 19:48:10 10° N visible
03 Jun - 04:33:35 10° NW 04:39:16 57° NE 04:49:23 10° ESE visible
03 Jun - 06:45:00 10° W 06:52:52 41° SSW 07:06:14 10° SE daylight
03 Jun - 09:01:39 10° SW 09:10:52 20° SSW 09:22:50 10° SSE daylight
03 Jun - 11:22:19 10° SSW 11:33:17 18° S 11:44:45 10° SE daylight
03 Jun - 13:39:38 10° SSW 13:55:34 29° SSE 14:08:25 10° ESE daylight
03 Jun - 15:55:55 10° SW 16:13:53 63° SSE 16:24:41 10° ENE daylight
03 Jun - 18:14:45 10° WSW 18:28:01 46° NW 18:35:42 10° NNE visible
04 Jun - 03:20:58 10° N 03:24:59 23° NE 03:30:44 10° E visible
04 Jun - 05:30:18 10° WNW 05:36:47 64° SSW 05:48:39 10° SE visible
04 Jun - 07:44:22 10° WSW 07:52:35 25° SSW 08:04:34 10° SSE daylight
04 Jun - 10:03:51 10° SW 10:12:58 16° S 10:23:32 10° SSE daylight
04 Jun - 12:22:12 10° SSW 12:35:59 22° SSE 12:48:57 10° ESE daylight
04 Jun - 14:38:05 10° SW 14:56:13 45° SSE 15:08:54 10° E daylight
04 Jun - 16:55:21 10° WSW 17:12:25 79° NW 17:22:05 10° NE daylight
04 Jun - 19:17:30 10° W 19:25:14 20° NW 19:30:43 10° N visible
05 Jun - 04:16:29 10° NW 04:21:45 70° NE 04:31:05 10° ESE visible
05 Jun - 06:28:24 10° W 06:35:28 33° SSW 06:46:59 10° SE daylight
05 Jun - 08:45:37 10° SW 08:53:30 17° S 09:03:31 10° SSE daylight
05 Jun - 11:04:52 10° SSW 11:15:47 18° S 11:27:27 10° SE daylight
05 Jun - 13:20:44 10° SSW 13:37:36 33° SSE 13:51:32 10° E daylight
05 Jun - 15:36:48 10° SW 15:55:45 72° SE 16:07:30 10° ENE daylight
05 Jun - 17:56:16 10° WSW 18:10:04 41° NW 18:18:20 10° NNE daylight
06 Jun - 03:03:37 10° NNW 03:07:31 27° NE 03:13:10 10° E visible
06 Jun - 05:13:31 10° WNW 05:19:24 50° SSW 05:29:48 10° SE visible
06 Jun - 07:28:15 10° WSW 07:35:16 20° SSW 07:45:04 10° SSE daylight
06 Jun - 09:47:26 10° SSW 09:55:37 15° S 10:05:07 10° SSE daylight
06 Jun - 12:03:50 10° SSW 12:18:10 24° SSE 12:32:03 10° ESE daylight
06 Jun - 14:19:01 10° SW 14:38:02 51° SSE 14:51:46 10° ENE daylight
06 Jun - 16:36:27 10° WSW 16:54:15 70° NW 17:04:45 10° NE daylight
06 Jun - 18:59:46 10° W 19:07:33 18° NW 19:13:12 10° N visible
